Location: Mat�lon
(46.2791°N, 7.1028°E)
Time: 17:28:34
(UTC+00:00)

Cosmos 2279 Rocket - Pass Details

Date: 18 September 2020
Orbit: 963 x 979 km, 82.9° (Epoch: 29 October)

Event Time Altitude Azimuth Distance (km) Brightness Sun altitude
Exits shadow 20:20:51 55° 63° (ENE) 1,166 4.2 -27.4°
Drops below altitude 10° 20:26:15 10° 15° (NNE) 2,742 6.6 -28.2°
Sets 20:28:48 0° 12° (NNE) 3,694 7.3 -28.5°
